Location: Unspecified
(0.0000°N, 0.0000°E)
Time: 05:24:09
(UTC+00:00)

SRMSAT - Pass Details

Date: 26 March 2019
Orbit: 848 x 866 km, 20.0° (Epoch: 17 June)

Event Time Altitude Azimuth Distance (km) Brightness Sun altitude
Exits shadow 04:23:15 12° 346° (NNW) 2,339 ? -25.6°
Maximum altitude 04:23:50 12° 352° (N) 2,329 ? -25.5°
Drops below altitude 10° 04:25:58 10° 13° (NNE) 2,468 ? -25.0°
Sets 04:30:27 0° 44° (NE) 3,408 ? -23.8°
